Theta_e
312 312 312 311 311 308 311 323 309 325 329 312 312 307 309 304 309 311 308 308 306 304 303 301 300 299 302 306 305 301 305 303 298 299 305 306 303 301 301 296 295 297 296 295
312 312 311 311 311 309 311 313 315 323 324 306 306 311 309 310 308 307 307 305 307 308 304 301 303 302 305 306 304 302 306 300 295 297 301 304 300 302 302 302 301 296 292 295
312 312 311 311 310 309 314 312 307 315 315 313 310 309 308 307 311 307 308 307 308 306 304 306 302 302 304 305 305 311 306 303 299 294 297 301 298 300 302 301 296 296 296 298
312 312 312 311 310 309 316 312 308 309 303 307 307 307 306 303 304 308 308 306 306 305 303 303 302 304 305 305 306 306 306 299 301 301 301 301 299 297 298 298 299 296 298 298
312 312 312 311 310 308 317 308 306 308 307 309 305 302 304 304 305 305 304 304 305 306 304 304 302 304 305 304 307 305 307 299 301 298 300 301 298 299 299 298 299 299 299 299
312 311 311 311 311 311 313 316 315 309 305 306 304 304 304 304 306 307 309 308 307 305 307 309 310 310 309 309 305 305 305 302 300 295 299 299 295 298 299 300 301 300 296 302
312 311 311 311 311 311 315 315 313 306 302 306 304 303 303 302 303 302 305 308 307 310 314 313 312 310 309 308 307 309 304 304 301 296 298 289 300 305 303 301 302 303 304 305
312 311 311 311 311 311 314 317 312 307 302 306 305 303 303 305 307 305 306 307 311 315 311 304 302 301 303 304 306 306 307 304 297 295 293 297 298 302 301 301 301 305 304 305
311 311 311 310 311 311 314 316 318 309 305 305 307 304 306 303 304 304 306 312 315 312 306 302 296 294 298 296 299 307 306 306 299 295 291 288 299 303 307 306 296 306 306 306
310 311 311 310 311 311 312 314 321 310 304 309 307 304 303 307 305 303 305 307 307 312 303 298 297 296 301 294 295 297 299 299 295 294 291 295 303 305 307 294 298 309 308 306
309 310 310 310 311 311 311 314 320 312 307 309 309 310 310 310 310 304 308 304 305 305 301 300 299 298 300 299 301 299 297 296 295 296 293 289 305 305 297 306 311 309 306 306
308 309 309 309 311 311 311 311 319 316 309 310 315 315 316 315 314 311 311 307 307 307 304 303 303 299 301 301 296 304 296 299 298 297 296 300 303 298 300 301 301 304 309 313
307 308 309 310 310 310 310 310 316 313 309 311 312 313 317 320 319 319 309 312 314 312 314 305 303 300 305 298 296 301 300 300 293 296 297 297 298 299 298 300 300 302 304 306
306 307 308 310 310 309 309 309 317 314 311 306 308 318 315 319 321 318 318 316 318 318 313 307 304 304 307 296 293 290 292 294 293 294 298 298 299 298 297 297 300 300 301 304
307 307 309 309 308 309 310 313 318 318 311 306 308 315 316 319 319 317 319 319 317 311 309 309 304 305 303 299 300 293 299 294 293 291 298 296 297 300 302 301 300 300 298 299
307 308 308 308 307 308 315 312 317 318 316 309 304 315 314 316 317 316 314 314 314 310 307 304 302 303 302 299 295 297 297 300 301 298 302 302 302 302 302 300 301 302 301 300
307 307 307 307 308 314 314 312 314 313 319 311 306 305 311 314 315 317 312 312 309 308 308 304 304 303 302 297 291 298 300 299 300 301 300 298 299 298 299 301 301 301 302 302
306 306 307 309 309 308 311 315 313 313 315 313 305 305 308 315 309 307 315 309 310 306 305 304 302 302 302 294 298 300 300 300 299 299 299 299 299 300 300 300 300 298 298 301
305 306 308 314 313 316 316 311 311 318 315 308 307 302 299 314 309 311 311 311 303 308 303 301 301 300 295 297 298 299 298 297 296 296 296 297 296 296 296 297 297 298 298 298
306 310 313 312 316 310 314 313 313 313 314 312 306 310 301 310 306 305 306 308 302 296 300 304 298 297 301 300 301 300 299 298 296 292 291 292 291 292 294 294 297 298 299 300
310 307 308 311 313 317 315 311 309 311 307 309 309 308 305 312 303 304 306 304 303 293 296 295 297 294 299 302 300 300 299 298 295 295 294 294 294 293 294 295 298 298 301 301
302 301 303 307 315 315 308 305 307 305 303 307 305 307 309 311 312 304 304 300 300 292 302 296 292 297 301 299 298 298 297 295 295 295 293 292 293 295 296 298 300 301 303 302
308 302 307 312 312 299 299 297 303 304 308 307 308 305 308 310 308 305 303 294 296 301 295 294 296 300 299 299 299 297 296 295 295 295 294 293 294 295 298 300 300 300 299 298
306 305 294 305 302 303 303 303 305 309 309 308 309 307 305 306 304 302 294 298 298 291 289 290 298 297 297 298 297 296 293 295 296 295 294 292 292 291 292 292 293 294 293 292
305 308 296 305 310 311 310 312 309 311 312 309 307 307 305 302 299 300 295 291 289 292 292 297 297 297 297 297 295 294 294 295 296 295 294 293 292 291 290 291 291 291 291 291
308 307 306 310 309 305 308 308 307 313 312 311 310 302 298 297 298 294 291 289 288 294 299 299 297 297 297 294 297 296 296 295 296 294 294 293 293 292 291 292 291 291 291 290
307 309 313 312 313 311 307 309 310 315 309 303 303 294 294 300 296 293 298 295 297 299 300 301 299 298 295 297 297 295 294 294 294 294 294 294 294 294 293 291 292 292 292 292
Wind_Speed
29 30 32 33 32 37 13 7 6 6 6 9 10 14 18 5 8 8 10 8 15 11 7 9 11 9 5 7 5 10 4 6 11 15 4 4 10 14 13 10 13 8 10 11
28 29 32 32 30 22 10 8 5 6 6 11 12 16 17 7 11 9 9 9 11 7 9 7 9 6 3 7 7 3 6 8 10 16 12 8 11 11 11 10 10 15 14 5
27 28 31 32 35 26 8 7 5 2 5 5 10 14 9 12 12 10 9 9 6 7 10 7 6 8 7 7 9 8 2 10 12 14 17 7 9 13 13 13 12 14 14 12
26 27 28 30 33 36 8 5 5 4 8 5 8 10 13 15 13 10 6 10 11 12 11 11 12 11 9 7 10 7 8 12 15 16 17 16 14 15 16 17 17 18 16 18
24 24 25 27 30 39 4 8 7 10 12 7 10 8 12 13 13 3 8 12 14 15 15 13 13 13 11 10 16 12 12 13 15 18 17 18 19 18 20 19 18 17 18 19
22 22 22 23 24 25 6 9 9 8 11 7 7 3 5 9 6 10 15 15 10 13 13 10 13 11 6 7 9 12 13 13 13 17 19 19 18 13 19 19 19 16 18 18
21 21 20 20 19 16 8 8 8 8 10 6 6 7 9 10 11 12 14 11 12 10 8 8 8 10 10 10 13 11 14 14 13 16 18 21 13 17 13 13 17 16 18 15
21 20 20 18 18 15 10 6 5 7 9 12 7 5 8 9 8 10 9 7 8 9 10 10 14 13 15 18 19 17 15 11 14 14 16 20 18 12 12 15 15 14 17 14
21 20 19 19 18 16 10 8 5 6 8 11 11 10 9 7 7 8 7 2 4 6 8 11 15 14 14 8 12 12 9 10 11 15 20 21 15 15 12 10 13 11 16 12
23 22 20 19 18 16 10 6 3 6 8 3 8 9 9 8 8 7 6 2 6 3 8 11 12 12 12 10 15 8 9 12 14 12 13 16 20 7 9 15 6 9 13 9
24 22 21 20 18 17 9 8 5 7 7 8 5 6 8 9 7 8 9 9 7 8 8 10 10 9 10 9 12 12 14 12 9 10 12 15 25 9 6 12 12 13 3 21
23 22 22 20 18 14 9 8 4 5 7 7 7 5 5 6 8 9 5 6 5 6 8 6 6 7 6 10 10 6 3 7 8 7 3 7 10 9 11 19 18 19 22 16
25 22 22 20 18 13 7 7 8 5 7 9 10 5 7 4 7 5 6 5 8 1 6 8 7 11 9 8 5 7 3 15 5 11 7 13 11 11 16 18 17 19 19 19
25 23 22 20 17 14 9 6 7 6 6 5 3 5 6 3 3 2 3 6 6 7 8 9 4 4 8 5 4 4 3 7 7 9 6 15 8 9 6 9 14 14 19 20
25 24 23 22 19 17 9 8 8 5 6 7 3 4 4 6 5 3 1 3 6 5 4 3 5 5 4 2 2 3 3 6 6 8 16 13 17 16 20 16 10 10 11 16
25 27 26 22 18 12 7 7 7 5 3 6 1 5 6 8 5 5 6 7 5 3 3 3 5 1 2 1 2 4 1 8 12 13 16 18 17 18 19 14 16 16 11 12
27 27 25 19 11 8 5 7 6 2 3 6 2 2 4 2 3 1 4 5 4 5 2 4 2 4 3 3 2 8 10 13 15 17 17 21 21 19 20 20 18 17 17 15
29 27 21 6 7 6 5 5 5 5 5 5 4 2 5 3 3 2 3 1 2 3 2 3 3 4 2 1 7 13 16 18 17 17 17 20 21 18 18 17 17 17 18 18
30 21 9 5 6 4 6 4 6 5 6 6 2 6 3 4 3 3 2 3 1 1 1 3 4 1 1 7 11 17 18 17 18 17 19 19 19 21 20 19 20 19 16 17
29 8 7 4 6 3 5 5 6 6 5 5 2 7 2 3 6 4 1 2 3 1 5 2 4 4 6 5 14 14 16 17 17 18 15 15 14 16 16 17 17 16 17 16
6 5 4 7 6 5 6 5 5 5 4 4 2 8 8 4 8 3 5 2 2 1 1 5 1 2 8 12 14 13 14 18 17 16 17 16 18 16 16 16 16 15 16 11
9 8 7 6 6 4 5 5 3 2 3 2 6 4 3 3 3 3 3 1 4 4 1 3 2 6 10 12 13 15 16 16 17 16 17 16 17 17 16 13 11 12 12 10
3 4 6 2 3 2 2 1 3 2 2 1 4 2 4 5 4 2 2 3 3 2 5 1 3 10 10 11 11 13 14 15 17 18 17 17 18 19 21 13 11 10 11 13
5 3 3 5 4 4 2 6 7 6 5 6 6 4 4 4 1 3 3 4 3 3 2 3 9 10 11 10 11 11 13 15 15 17 16 16 17 16 19 17 14 13 13 15
4 3 4 3 2 3 5 3 5 4 4 6 5 3 3 4 1 2 3 2 1 3 3 8 8 9 9 11 9 10 11 12 13 13 13 15 15 15 16 16 15 16 18 19
5 5 5 4 1 4 4 3 4 4 4 2 3 1 2 1 2 2 2 4 2 3 8 6 4 6 10 7 8 8 10 10 11 11 11 12 14 13 13 15 16 16 17 18
4 6 4 4 1 1 3 4 4 4 6 6 3 2 5 1 2 2 3 3 5 6 5 8 5 7 5 7 8 10 9 9 11 11 12 12 11 13 14 16 15 16 16 16
Wind_Direction
351 349 348 347 347 340 333 289 258 107 191 226 234 240 241 292 284 191 263 263 281 270 254 250 250 255 230 141 189 218 114 285 262 220 140 290 277 282 290 262 261 233 275 288
351 350 349 345 346 1 314 297 312 136 221 245 239 238 247 240 254 245 233 242 247 240 261 254 249 244 62 162 220 251 170 230 252 236 198 205 248 233 253 268 278 269 284 299
350 350 350 345 339 347 303 290 310 113 234 274 321 311 258 277 209 267 260 254 215 213 237 223 272 234 165 229 220 71 75 271 264 285 311 327 217 225 251 244 257 267 259 252
349 350 347 346 340 332 300 325 48 20 302 332 327 294 290 287 278 199 228 237 231 232 246 234 223 254 200 191 148 207 228 252 265 270 274 277 277 269 260 234 247 261 280 291
347 348 347 346 345 332 308 340 343 342 284 278 286 262 258 270 284 300 230 234 258 234 242 242 267 232 228 223 187 220 219 260 276 278 276 278 266 259 260 265 264 253 259 262
346 348 348 346 351 338 339 358 323 274 293 249 257 337 328 309 331 278 258 283 290 266 296 249 263 257 249 244 255 220 221 247 252 265 269 265 265 258 260 258 249 251 257 263
343 344 347 344 348 355 321 332 302 280 300 307 337 338 295 280 285 279 297 308 286 308 325 300 285 285 236 242 244 237 260 248 250 265 269 266 264 248 286 303 301 278 252 247
339 341 344 342 339 343 314 303 297 310 303 319 283 343 299 297 259 234 264 295 4 337 289 265 245 233 231 235 242 238 233 242 275 272 262 269 260 209 228 254 264 265 277 263
335 336 341 340 334 335 310 296 289 275 302 41 345 308 286 301 327 283 209 111 323 271 265 235 245 254 254 226 177 245 279 258 252 262 266 269 270 282 330 272 257 279 289 284
330 334 337 338 330 329 314 280 253 271 277 294 338 355 343 322 319 292 290 23 292 242 260 259 266 265 280 288 279 243 218 251 241 250 269 300 350 337 215 240 293 358 344 305
328 332 333 332 326 324 321 304 248 271 296 307 353 345 343 336 312 315 25 283 174 255 252 270 279 280 280 293 285 280 288 302 225 249 271 249 3 3 359 347 357 6 345 268
326 328 329 327 322 320 324 275 156 224 259 342 326 322 329 345 338 307 282 329 291 331 309 357 317 312 294 302 294 40 305 349 326 22 11 14 39 47 3 357 360 356 335 339
326 325 324 322 320 316 298 289 294 237 256 228 217 167 90 7 359 332 291 40 356 20 336 308 308 296 344 322 38 305 60 12 36 337 39 346 331 12 1 345 343 339 327 325
326 324 320 319 318 309 282 244 212 254 286 290 70 173 104 331 25 45 276 310 304 282 267 271 330 343 30 42 51 48 332 310 334 261 266 335 144 334 282 300 309 319 326 321
323 323 319 319 318 304 257 226 253 248 308 328 105 146 93 48 33 51 59 334 305 317 15 357 28 35 28 63 130 68 345 351 332 308 321 303 296 308 309 301 280 274 294 306
318 317 317 316 316 296 198 189 191 215 229 274 194 174 172 120 94 61 33 349 321 351 121 74 96 139 254 360 60 75 293 237 252 276 280 287 293 288 298 306 313 296 264 269
313 316 316 311 299 241 308 12 39 59 222 251 268 113 246 306 174 356 92 53 33 3 60 63 141 122 267 32 12 312 335 339 328 323 327 310 309 309 304 294 301 306 284 268
314 318 317 288 177 256 207 138 58 322 264 268 288 283 111 334 11 175 72 195 188 40 77 180 8 131 154 171 352 348 342 335 326 329 325 307 302 302 287 301 297 291 288 286
314 314 314 181 230 230 68 344 263 228 292 302 7 315 95 286 195 75 45 318 325 53 68 70 291 204 105 33 332 346 349 319 322 325 313 309 306 299 296 290 286 277 279 280
303 273 206 182 50 332 258 182 191 201 185 236 343 269 243 320 329 64 258 267 27 138 67 310 3 281 77 30 5 347 328 350 346 318 308 308 300 299 293 288 284 284 274 274
343 340 355 346 321 239 214 226 198 183 187 217 358 10 322 87 328 360 3 71 334 139 81 304 56 255 51 14 355 341 3 351 332 322 320 315 308 299 290 277 277 275 272 279
313 302 293 276 238 219 243 214 155 307 169 103 336 15 356 47 307 169 281 233 198 62 43 270 269 69 29 358 346 16 4 343 333 333 340 335 322 312 294 282 261 279 303 317
219 221 230 232 211 333 236 351 49 25 353 273 335 325 0 122 285 31 322 253 77 129 213 122 191 36 17 353 11 5 355 342 339 347 358 347 355 6 19 24 14 1 12 350
255 265 296 259 185 30 3 40 35 49 333 355 347 330 358 28 98 336 280 63 269 286 21 325 45 20 2 347 23 8 344 344 350 360 7 3 11 18 28 30 32 34 39 31
274 257 245 192 72 61 51 12 82 62 321 349 303 163 280 63 173 22 21 237 298 42 280 37 40 14 341 19 9 8 348 353 2 12 9 14 19 29 32 30 35 40 42 44
264 240 238 197 274 57 56 13 73 12 329 252 236 81 4 63 327 235 44 2 8 339 28 51 11 4 26 351 26 7 10 5 13 18 19 29 29 35 41 41 42 45 49 52
255 209 234 297 238 40 68 30 33 360 300 21 340 306 52 297 300 48 49 350 11 15 37 78 53 35 11 18 27 29 20 18 25 26 27 37 38 45 48 48 48 51 49 53